Flag for U.S.A. Weather past 2 weeks in Grand Junction, Colorado, U.S.A.

Now
62 °F

Light rain. Overcast.


Feels Like: 62 °F
Forecast: 63 / 82 °F
Wind: 16 mph from South

Location: Walker Field

Current Time: Sep 21, 2014 at 8:33:57 AM

Latest Report: Sep 21, 2014 at 7:53 AM


Visibility: 10 mi

Pressure: 30.09 "Hg

Humidity: 78%

Dew point: 55 °F

Location of Grand JunctionLocation

Historic Weather in Grand Junction — Graph

°F

Grand Junction temperature yesterday

Maximum temperature yesterday: 90 °F (at 3:53 PM)
Minimum temperature yesterday: 59 °F (at 5:53 AM)
Average temperature yesterday: 76 °F

Past Weeks' High & Low Weather Summary

 TemperatureHumidityPressure
High90 °F (Sep 20, 3:53 PM)100% (Sep 9, 4:53 AM)30.17 "Hg (Sep 9, 4:53 AM)
Low46 °F (Sep 12, 6:53 AM)15% (Sep 6, 4:53 PM)29.67 "Hg (Sep 18, 4:53 PM)
Average68 °F45%29.92 "Hg
* Reported Sep 6 6:53 AM — Sep 21 6:53 AM, Grand Junction, Weather by CustomWeather, © 2014

Note: Actual official high and low records may vary slightly from our data, if they occured in-between our weather recording intervals... More about our weather records

Advertising

Grand Junction weather history for previous 24 hours

 ConditionsComfort  
Time TempWeatherWind HumidityBarometerVisibility
6:53 AM
Sep 21
65 °FOvercast.21 mph66%30.03 "Hg10 mi
5:53 AM71 °FLight rain. Overcast.25 mph42%29.95 "Hg10 mi
4:53 AM69 °FClear.12 mph39%29.92 "Hg10 mi
3:53 AM69 °FPassing clouds.10 mph36%29.91 "Hg10 mi
2:53 AM71 °FClear.13 mph34%29.87 "Hg10 mi
1:53 AM66 °FClear.9 mph42%29.89 "Hg10 mi
12:53 AM68 °FClear.9 mph39%29.89 "Hg10 mi
11:53 PM
Sep 20
72 °FClear.13 mph33%29.88 "Hg10 mi
10:53 PM70 °FClear.9 mph35%29.90 "Hg10 mi
9:53 PM78 °FClear.6 mph25%29.89 "Hg10 mi
8:53 PM80 °FClear.12 mph19%29.87 "Hg10 mi
7:53 PM82 °FSunny.15 mph16%29.84 "Hg10 mi
6:53 PM85 °FSunny.12 mph16%29.84 "Hg10 mi
5:53 PM88 °FSunny.3 mph18%29.82 "Hg10 mi
4:53 PM90 °FSunny.10 mph17%29.82 "Hg10 mi
3:53 PM90 °FSunny.10 mph19%29.83 "Hg10 mi
2:53 PM88 °FSunny.7 mph21%29.86 "Hg10 mi
1:53 PM86 °FSunny.No wind23%29.89 "Hg10 mi
12:53 PM84 °FSunny.5 mph26%29.92 "Hg10 mi
11:53 AM81 °FSunny.9 mph27%29.95 "Hg10 mi
Weather by CustomWeather, © 2014

See weather overviewHow to use our weather pages